Date,TemperatureHighF,TemperatureAvgF,TemperatureLowF,DewpointHighF,DewpointAvgF,DewpointLowF,HumidityHigh,HumidityAvg,HumidityLow,PressureMaxIn,PressureMinIn,WindSpeedMaxMPH,WindSpeedAvgMPH,GustSpeedMaxMPH,PrecipitationSumIn
2013-1-1,44.1,40.3,35.7,34.0,31.2,27.0,77,70,64,30.84,0.00,4,0,0,0.00
2013-1-2,39.3,35.1,30.2,31.0,22.8,17.0,73,62,53,29.99,25.13,5,1,1,0.00
2013-1-3,41.0,31.6,26.9,24.0,20.5,17.0,81,64,52,28.78,27.99,3,0,0,0.00
2013-1-4,45.2,34.5,24.3,27.0,23.4,21.0,86,66,49,27.95,27.95,8,1,0,0.00
2013-1-5,45.6,36.8,27.1,33.0,25.3,21.0,81,64,49,32.23,23.67,6,0,0,0.00
2013-1-6,53.5,43.6,29.7,37.0,32.7,27.0,94,67,50,31.54,0.00,5,0,0,0.00
2013-1-7,46.9,41.1,28.7,33.0,29.6,25.0,86,64,53,0.00,0.00,7,1,0,0.00
2013-1-8,54.5,39.8,26.3,39.0,32.6,24.0,93,77,54,0.00,0.00,3,0,5,0.00
2013-1-9,52.0,40.2,30.1,44.0,36.3,28.0,95,86,55,0.00,0.00,6,0,0,0.01
2013-1-10,55.5,48.0,40.2,36.0,33.2,31.0,73,58,44,27.65,0.00,9,1,0,0.00
2013-1-11,45.7,41.3,34.9,42.0,36.8,30.0,95,84,70,32.43,27.65,2,0,0,0.03
2013-1-12,53.5,45.8,43.0,48.0,43.9,42.0,96,93,82,30.80,0.00,1,0,0,0.00
2013-1-13,55.3,49.1,43.2,55.0,48.3,42.0,98,97,96,27.06,22.34,1,0,0,0.01
2013-1-14,60.5,53.9,41.3,60.0,49.0,37.0,99,84,69,0.00,0.00,4,0,0,0.09
2013-1-15,41.1,39.6,36.4,40.0,37.9,35.0,96,94,89,0.00,0.00,2,0,0,0.65
2013-1-16,41.7,38.4,35.6,41.0,37.2,34.0,100,95,94,25.84,0.00,2,0,0,0.48
2013-1-17,43.9,41.6,39.2,41.0,36.5,32.0,97,83,68,30.46,25.72,6,0,0,0.03
2013-1-18,38.9,34.8,29.7,32.0,22.2,15.0,77,61,43,25.72,25.72,10,1,0,0.00
2013-1-19,55.2,41.6,31.2,35.0,29.2,22.0,77,63,46,0.00,0.00,4,1,4,0.00
2013-1-20,59.9,47.0,36.3,39.0,27.3,-99.9,71,50,28,30.79,0.00,5,-9,6,0.00
2013-1-21,48.1,38.3,31.4,31.0,22.4,14.0,61,53,46,29.85,27.39,7,1,2,0.00
2013-1-22,31.2,21.9,18.5,15.0,2.7,-1.0,53,44,34,0.00,0.00,10,3,0,0.00
2013-1-23,26.9,21.4,13.9,14.0,4.4,1.0,70,49,39,27.42,0.00,8,1,0,0.00
2013-1-24,27.2,22.2,18.2,17.0,11.3,6.0,86,65,41,27.35,27.35,10,1,5,0.00
2013-1-25,24.5,21.4,18.8,18.0,9.6,3.0,84,62,46,27.35,27.35,2,0,0,0.00
2013-1-26,35.1,28.9,23.2,24.0,21.6,18.0,81,74,62,27.35,27.35,3,0,0,0.02
2013-1-27,40.3,31.0,25.0,24.0,21.4,19.0,86,68,53,27.35,27.35,2,0,0,0.01
2013-1-28,45.6,36.5,30.9,43.0,33.3,24.0,95,88,74,27.35,27.35,2,0,0,0.13
2013-1-29,70.7,52.8,38.6,58.0,47.6,37.0,97,83,63,27.35,27.35,2,0,0,0.00
2013-1-30,71.1,61.6,46.7,64.0,58.0,45.0,98,88,75,27.92,27.35,10,1,0,0.18
2013-1-31,63.9,44.9,30.8,63.0,31.2,16.0,98,60,41,27.92,27.92,12,4,0,0.19
2013-2-1,33.8,27.3,20.1,28.0,14.0,6.0,88,58,44,0.00,0.00,11,3,0,0.01
2013-2-2,32.4,25.1,16.9,27.0,15.1,6.0,90,67,48,0.00,0.00,3,0,0,0.00
2013-2-3,34.4,30.1,23.9,30.0,26.3,21.0,94,86,63,0.00,0.00,4,0,0,0.01
2013-2-4,36.1,31.5,24.8,25.0,19.1,14.0,69,61,53,0.00,0.00,7,0,0,0.01
2013-2-5,41.9,36.3,30.1,32.0,28.0,24.0,81,72,65,0.00,0.00,2,0,0,0.18
2013-2-6,46.6,38.4,30.3,33.0,29.1,24.0,90,70,54,0.00,0.00,12,1,0,0.11
2013-2-7,41.6,34.9,27.3,31.0,27.2,23.0,85,74,62,27.41,0.00,3,0,1,0.01
2013-2-8,42.7,37.9,33.1,39.0,33.7,25.0,95,85,63,27.61,20.68,9,1,0,0.26
2013-2-9,41.2,35.2,30.2,25.0,21.7,19.0,70,58,48,27.35,21.28,13,3,6,0.00
2013-2-10,46.7,35.0,21.5,30.0,22.2,18.0,87,61,40,28.10,22.79,2,0,0,0.00
2013-2-11,53.1,44.6,37.6,51.0,42.5,31.0,97,92,74,28.10,22.30,2,0,4,0.31
2013-2-12,58.0,48.8,41.4,41.0,33.3,30.0,94,56,41,31.91,25.05,6,1,0,0.00
2013-2-13,48.3,39.5,34.2,38.0,32.3,27.0,93,76,60,31.91,27.51,2,0,0,0.19
2013-2-14,50.4,39.1,30.2,33.0,31.5,29.0,95,76,51,28.11,27.61,5,0,0,0.02
2013-2-15,61.6,44.1,30.7,42.0,35.4,29.0,95,74,41,27.85,24.81,8,1,0,0.07
2013-2-16,39.8,36.7,32.1,36.0,30.7,19.0,94,79,57,27.61,27.58,4,0,0,0.04
2013-2-17,31.9,28.7,25.1,20.0,14.1,9.0,66,55,43,27.88,22.86,12,4,0,0.00
2013-2-18,43.3,31.4,21.2,20.0,14.2,9.0,62,50,37,27.67,27.67,5,1,0,0.00
2013-2-19,45.1,40.3,33.7,42.0,32.2,21.0,91,74,54,27.88,22.29,4,1,0,0.07
2013-2-20,39.9,34.1,26.0,27.0,18.6,11.0,61,54,46,28.11,22.29,10,3,0,0.00
2013-2-21,39.8,30.9,24.8,21.0,16.6,11.0,63,56,47,28.11,27.45,12,2,0,0.00
2013-2-22,34.4,32.5,30.9,31.0,24.8,19.0,92,74,59,27.80,20.85,2,0,0,0.08
2013-2-23,45.7,39.3,33.0,44.0,38.0,31.0,96,95,92,27.38,27.38,3,0,0,0.08
2013-2-24,52.6,43.5,34.3,42.0,33.8,21.0,93,71,46,28.07,27.36,11,2,0,0.00
2013-2-25,48.2,37.8,29.8,30.0,25.3,21.0,80,62,48,31.97,27.36,4,0,0,0.00
2013-2-26,44.6,37.8,29.3,44.0,34.5,25.0,96,88,74,27.54,27.36,8,0,0,0.52
2013-2-27,56.3,47.9,40.5,45.0,40.8,36.0,97,78,56,28.01,27.51,3,1,0,0.18
2013-2-28,48.7,44.1,41.3,39.0,32.7,29.0,85,65,49,27.67,27.54,7,2,0,0.01
2013-3-1,44.4,41.7,37.5,32.6,30.5,27.0,70,65,56,27.67,27.36,8,2,4,0.00
2013-3-2,37.8,34.5,31.2,27.0,23.9,22.0,72,65,57,27.82,27.36,9,2,0,0.00
2013-3-3,42.0,34.6,29.5,25.0,21.9,19.0,73,61,48,27.82,27.82,10,2,0,0.00
2013-3-4,44.7,35.0,29.3,24.0,20.1,17.0,67,55,43,27.82,27.82,10,3,0,0.00
2013-3-5,53.5,40.4,28.9,32.0,24.1,20.0,77,54,31,27.82,27.82,5,0,0,0.00
2013-3-6,39.4,36.0,33.2,36.0,33.8,31.0,95,91,81,27.82,27.82,10,2,0,1.14
2013-3-7,50.0,42.6,35.8,34.0,31.5,30.0,81,66,50,27.82,27.82,11,2,0,0.04
2013-3-8,50.1,43.1,37.1,33.0,30.2,28.0,73,61,51,28.04,27.42,13,2,0,0.00
2013-3-9,61.7,46.1,34.9,33.0,29.9,26.0,75,55,32,27.85,24.80,4,0,0,0.00
2013-3-10,65.1,48.0,30.5,38.0,30.9,26.0,91,57,26,0.00,40.00,2,0,0,0.00
2013-3-11,62.4,52.2,43.1,53.0,46.1,38.0,91,80,69,27.82,0.00,4,0,0,0.00
2013-3-12,58.4,53.6,42.8,57.0,47.0,34.0,97,79,63,27.82,21.96,8,2,0,0.20
2013-3-13,50.5,42.0,31.4,36.0,29.5,21.0,90,63,39,21.96,21.96,12,2,0,0.07
2013-3-14,46.1,38.3,33.0,23.0,20.3,17.0,60,49,37,27.89,21.96,10,3,0,0.02
2013-3-15,59.0,43.6,27.4,35.0,27.9,21.0,81,56,37,27.89,22.26,5,1,0,0.24
2013-3-16,62.7,48.5,39.1,52.0,39.3,33.0,82,71,55,25.21,21.49,5,0,0,0.02
2013-3-17,42.0,39.4,35.9,35.0,31.9,29.0,84,75,63,21.49,21.49,2,0,0,0.00
2013-3-18,38.6,37.1,32.5,37.0,32.0,25.0,95,82,61,28.04,21.49,4,0,0,0.19
2013-3-19,60.1,46.8,37.3,42.0,33.0,15.0,95,66,24,28.04,28.04,12,2,0,0.12
2013-3-20,54.0,46.5,38.0,25.0,20.1,16.0,49,35,30,28.04,28.04,9,2,6,0.00
2013-3-21,42.5,35.0,29.9,28.0,18.2,12.0,77,51,41,31.58,27.36,9,2,0,0.00
2013-3-22,48.3,36.1,25.2,24.0,18.6,13.0,65,50,38,27.58,27.39,9,1,0,0.00
2013-3-23,54.9,41.9,27.3,29.0,25.0,21.0,78,53,36,27.58,27.58,10,1,0,0.00
2013-3-24,44.7,38.6,32.6,33.0,26.6,23.0,92,64,49,27.67,0.00,2,0,0,0.04
2013-3-25,38.1,35.2,32.2,36.0,33.4,31.0,95,93,90,27.77,24.84,6,0,1,0.47
2013-3-26,50.3,42.5,33.7,36.0,33.0,30.0,94,71,49,32.20,0.00,11,2,0,0.00
2013-3-27,49.8,43.9,38.3,33.0,30.7,29.0,72,60,49,32.20,22.44,11,3,0,0.00
2013-3-28,48.1,43.8,38.6,34.0,31.1,28.0,67,62,53,32.20,27.41,9,2,0,0.00
2013-3-29,57.1,47.6,40.0,36.0,33.1,30.0,70,58,42,27.52,20.13,10,1,3,0.00
2013-3-30,61.2,48.6,34.8,38.0,32.8,30.0,85,58,32,27.60,27.36,5,0,0,0.00
2013-3-31,56.1,48.1,41.2,51.0,41.9,32.0,93,79,61,27.60,27.35,5,0,1,0.01
2013-4-1,65.9,50.2,38.9,48.0,39.7,27.0,97,70,45,27.45,27.45,11,2,0,0.00
2013-4-2,50.8,43.5,35.6,26.0,20.4,18.0,56,41,29,27.85,27.45,10,2,0,0.00
2013-4-3,53.0,41.7,29.0,23.0,20.3,17.0,69,44,28,27.85,23.25,12,2,0,0.00
2013-4-4,51.9,41.7,27.2,37.0,24.0,18.0,91,52,33,27.75,27.75,4,0,2,0.07
2013-4-5,66.2,50.4,38.3,40.0,35.9,27.0,95,64,32,27.75,27.75,8,1,1,0.20
2013-4-6,59.9,48.6,39.1,34.0,27.2,23.0,66,44,33,27.75,27.75,6,0,0,0.00
2013-4-7,72.3,56.5,39.7,47.0,40.4,33.0,80,57,39,27.75,27.75,5,1,0,0.00
2013-4-8,83.6,66.9,49.0,55.0,49.5,43.0,81,55,36,27.75,27.75,2,0,0,0.00
2013-4-9,89.8,73.9,57.5,62.0,56.9,51.0,82,57,38,27.75,27.75,4,0,4,0.00
2013-4-10,93.4,79.0,61.1,65.0,59.6,54.0,81,53,37,27.75,27.75,6,0,2,0.00
2013-4-11,87.9,73.6,57.3,67.0,60.5,54.0,87,66,45,27.75,27.75,4,0,1,0.00
2013-4-12,74.5,61.2,53.1,70.0,58.9,51.0,99,92,80,32.12,27.75,5,1,0,0.77
2013-4-13,72.4,58.9,44.3,54.0,45.7,41.0,89,64,38,32.12,23.70,4,0,0,0.00
2013-4-14,69.2,58.0,43.6,47.0,43.8,40.0,88,62,41,23.70,23.70,4,0,0,0.00
2013-4-15,63.8,59.3,55.1,54.0,50.0,47.0,82,72,66,23.70,23.70,5,0,0,0.00
2013-4-16,77.6,64.8,55.5,63.0,57.1,50.0,87,76,60,23.70,23.70,5,0,0,0.00
2013-4-17,79.2,67.9,58.3,67.0,61.2,57.0,97,80,61,23.70,23.70,5,0,0,0.00
2013-4-18,80.0,67.5,60.5,68.0,61.3,57.0,96,81,61,23.70,23.70,2,0,0,0.01
2013-4-19,80.7,68.6,51.2,70.0,63.4,50.0,97,84,66,23.70,23.70,5,1,0,0.64
2013-4-20,61.3,53.5,46.7,49.0,36.6,30.0,94,55,38,29.37,23.32,7,2,0,0.42
2013-4-21,55.4,48.4,41.3,36.0,29.8,25.0,68,49,38,28.73,21.92,7,1,0,0.06
2013-4-22,57.1,48.6,39.7,42.0,38.1,34.0,82,68,55,25.64,23.01,5,1,0,0.00
2013-4-23,62.1,52.6,47.4,48.0,43.7,39.0,85,73,58,23.01,23.01,4,0,0,0.00
2013-4-24,80.1,62.1,44.3,62.0,52.5,42.0,96,73,48,23.01,23.01,9,1,0,0.00
2013-4-25,66.0,56.1,46.6,52.0,38.6,34.0,70,54,34,23.01,23.01,13,2,0,0.00
2013-4-26,68.0,56.6,43.1,44.0,40.7,38.0,87,58,37,23.01,23.01,5,0,0,0.00
2013-4-27,73.4,59.3,44.5,49.0,44.5,41.0,90,60,41,23.01,23.01,5,0,1,0.00
2013-4-28,68.1,57.7,46.0,53.0,45.9,43.0,91,67,42,27.60,23.01,3,0,0,0.00
2013-4-29,60.3,56.7,53.7,59.0,54.6,46.0,98,93,66,0.00,0.00,5,0,0,0.24
2013-4-30,60.8,57.3,55.3,58.0,54.9,49.0,97,92,74,0.00,0.00,6,1,0,0.02
2013-5-1,71.2,60.0,49.8,51.0,46.4,42.0,83,63,38,25.60,0.00,6,0,0,0.00
2013-5-2,68.3,56.6,46.1,53.0,48.2,44.0,94,75,55,0.00,0.00,4,0,0,0.00
2013-5-3,66.7,56.6,48.1,50.0,46.2,42.0,92,70,46,0.00,0.00,9,1,0,0.00
2013-5-4,68.4,57.6,48.7,50.0,46.2,42.0,85,67,49,0.00,0.00,7,1,0,0.00
2013-5-5,63.4,54.3,46.0,49.0,44.6,40.0,83,70,57,0.00,0.00,6,1,4,0.00
2013-5-6,63.2,56.0,51.4,59.0,52.5,46.0,94,88,81,0.00,0.00,6,0,1,0.00
2013-5-7,63.8,60.7,58.6,63.0,59.6,57.0,97,96,93,0.00,0.00,10,1,0,0.45
2013-5-8,70.8,61.3,56.7,61.0,58.0,56.0,98,90,64,0.00,0.00,1,0,0,0.06
2013-5-9,74.5,62.3,55.3,66.0,59.1,54.0,97,90,65,0.00,0.00,4,0,0,0.45
2013-5-10,85.1,70.9,54.2,69.0,62.8,54.0,99,78,52,0.00,0.00,5,0,4,0.14
2013-5-11,79.8,68.2,63.3,69.0,65.2,63.0,99,91,67,18.07,18.07,2,0,1,0.35
2013-5-12,65.0,60.9,53.0,64.0,45.1,34.0,97,59,37,0.00,0.00,7,2,0,0.04
2013-5-13,60.8,53.0,41.2,39.0,33.9,30.0,84,51,34,0.00,0.00,9,1,7,0.00
2013-5-14,65.5,53.6,37.7,44.0,37.5,33.0,87,57,38,27.23,0.00,6,0,0,0.00
2013-5-15,87.5,67.5,53.7,68.0,56.6,45.0,85,69,52,26.13,0.00,2,0,0,0.00
2013-5-16,84.0,74.7,62.5,67.0,63.5,59.0,90,69,53,26.13,26.13,5,0,0,0.00
2013-5-17,84.7,73.7,59.0,63.0,57.9,54.0,92,60,40,26.13,26.13,5,0,0,0.00
2013-5-18,67.4,63.4,60.0,61.0,58.0,53.0,94,83,61,26.13,26.13,1,0,0,0.05
2013-5-19,77.0,67.6,60.1,69.1,64.8,58.0,99,91,76,26.13,26.13,4,0,2,0.01
2013-5-20,83.5,72.4,65.0,73.0,68.5,64.0,97,88,71,16.91,0.00,1,0,0,0.01
2013-5-21,85.7,74.6,68.0,75.0,70.4,67.0,96,87,69,0.00,0.00,1,0,0,0.00
2013-5-22,88.1,78.0,70.0,77.0,72.4,68.0,97,84,66,0.00,0.00,3,0,0,0.03
2013-5-23,82.5,74.0,65.2,72.0,69.9,63.0,97,87,69,0.00,0.00,3,0,0,0.11
2013-5-24,65.0,58.0,50.4,64.0,50.8,38.0,98,78,59,0.00,0.00,9,2,0,0.02
2013-5-25,67.2,56.0,45.3,44.0,39.3,35.0,69,55,39,32.25,0.00,10,3,0,0.00
2013-5-26,73.8,61.9,50.9,46.0,41.5,38.0,69,49,34,32.25,22.31,8,1,0,0.00
2013-5-27,72.5,63.0,48.3,53.0,47.5,43.0,82,59,39,22.31,22.31,2,0,0,0.00
2013-5-28,85.7,68.7,59.0,73.0,62.7,52.0,98,82,62,22.31,22.31,3,0,0,0.76
2013-5-29,89.3,76.6,65.4,75.0,69.6,65.0,99,81,54,22.31,22.31,3,0,0,0.01
2013-5-30,92.3,80.4,67.5,75.0,70.8,65.0,93,73,55,22.31,22.31,2,0,0,0.00
2013-5-31,91.9,80.4,66.5,73.0,69.5,65.0,94,71,52,22.31,22.31,4,0,1,0.00
2013-6-1,92.4,82.2,69.6,75.2,70.8,66.0,87,69,55,22.31,22.31,2,0,1,0.00
2013-6-2,85.6,79.1,70.9,75.0,71.0,67.0,97,77,68,22.31,22.31,7,0,3,0.12
2013-6-3,81.5,73.1,67.2,72.0,69.0,61.0,99,87,68,22.31,22.31,5,0,0,0.57
2013-6-4,78.0,69.0,61.4,61.0,52.9,48.0,76,58,41,22.31,22.31,5,1,4,0.00
2013-6-5,80.9,69.6,55.1,64.0,57.9,53.0,93,68,51,22.31,22.31,3,0,0,0.00
2013-6-6,75.4,68.3,62.1,67.0,62.6,57.0,97,82,69,0.00,0.00,1,0,0,0.53
2013-6-7,70.4,68.8,66.2,70.0,68.4,65.0,100,99,96,0.00,0.00,6,0,0,2.09
2013-6-8,81.1,71.4,65.4,68.0,65.3,62.0,96,82,61,32.27,0.00,3,0,0,0.01
2013-6-9,81.9,73.9,65.6,74.0,68.4,63.0,95,83,64,32.27,32.27,4,0,0,0.02
2013-6-10,78.1,72.9,68.8,77.0,72.1,69.0,100,97,91,32.27,32.27,2,0,0,1.93
2013-6-11,83.7,74.6,66.1,73.0,68.3,66.0,100,82,64,32.27,32.27,6,1,0,0.28
2013-6-12,90.3,79.7,67.7,74.0,69.7,64.0,89,72,53,32.27,32.27,6,1,0,0.00
2013-6-13,88.0,76.7,70.3,76.0,69.8,60.0,94,80,61,32.27,32.27,9,1,0,0.00
2013-6-14,79.7,70.7,60.9,62.0,58.6,55.0,90,67,50,32.27,32.11,7,1,0,0.02
2013-6-15,83.8,74.7,65.1,64.0,61.2,58.0,79,64,47,32.11,32.11,4,0,0,0.00
2013-6-16,85.3,76.0,66.5,73.0,67.7,62.0,89,76,61,32.11,32.11,1,0,0,0.00
2013-6-17,87.7,79.2,70.5,76.0,71.9,68.0,93,79,64,32.11,32.11,2,0,0,0.00
2013-6-18,78.3,72.6,65.8,74.0,70.1,65.0,96,91,82,32.11,32.11,2,0,0,0.20
2013-6-19,76.7,70.4,65.0,66.0,64.7,62.0,97,82,67,32.11,32.11,2,0,0,0.00
2013-6-20,80.4,71.9,62.4,68.0,63.5,57.0,98,76,59,32.11,32.11,2,0,0,0.00
2013-6-21,83.2,72.6,58.6,67.0,60.3,56.0,93,67,44,32.13,32.11,5,0,0,0.00
2013-6-22,87.5,76.8,64.1,73.0,68.2,63.0,97,76,60,32.13,32.13,1,0,0,0.00
2013-6-23,84.8,75.7,70.8,77.0,72.0,68.0,98,88,76,32.13,32.13,0,0,0,0.60
2013-6-24,90.4,78.6,70.8,79.0,73.9,70.0,99,86,55,32.13,32.13,7,0,0,0.02
2013-6-25,93.4,81.5,69.0,79.0,73.6,67.0,98,79,60,32.13,32.13,4,0,0,0.01
2013-6-26,90.7,80.4,70.4,79.0,73.1,68.0,94,79,65,32.13,31.75,2,0,0,0.01
2013-6-27,84.2,75.4,70.6,77.0,72.4,69.0,97,90,78,31.75,31.75,1,0,0,0.25
2013-6-28,88.6,75.3,67.2,77.0,72.0,65.0,100,90,67,31.75,31.75,15,0,0,2.43
2013-6-29,87.5,77.2,67.0,74.0,70.1,67.0,100,81,57,31.75,31.75,2,0,0,0.01
2013-6-30,86.9,78.0,73.5,79.0,75.5,72.0,98,92,77,31.75,31.75,2,0,0,0.31
2013-7-1,82.8,76.3,71.5,77.0,74.1,71.0,99,93,80,31.75,31.75,1,0,0,0.42
2013-7-2,82.0,76.7,73.3,77.0,74.4,72.0,97,93,83,31.75,31.75,1,0,0,0.13
2013-7-3,85.9,77.7,72.2,80.0,75.1,71.0,100,92,79,31.75,26.93,1,0,0,0.12
2013-7-4,90.0,81.4,74.8,79.0,76.0,74.0,97,84,65,26.93,26.92,2,0,0,0.00
2013-7-5,90.7,82.6,74.0,79.0,76.1,73.0,95,81,66,26.93,26.93,2,0,0,0.00
2013-7-6,93.3,83.0,76.0,80.0,76.7,74.0,95,82,62,26.93,26.92,1,0,0,0.00
2013-7-7,91.6,81.8,72.0,80.0,75.3,70.0,96,81,67,26.93,26.93,3,0,0,0.05
2013-7-8,85.7,77.2,71.7,76.0,72.5,70.0,98,86,65,26.93,26.92,3,0,0,0.06
2013-7-9,85.0,79.0,72.6,78.0,74.7,71.0,96,87,74,26.93,26.93,0,0,0,0.00
2013-7-10,89.4,80.3,73.3,82.0,76.7,72.0,98,89,74,26.93,26.93,1,0,0,0.32
2013-7-11,84.8,77.7,73.0,75.0,73.4,71.0,98,87,68,26.93,26.93,2,0,0,0.01
2013-7-12,77.3,70.8,67.5,74.0,69.0,67.0,98,94,82,26.93,26.93,5,0,0,1.57
2013-7-13,85.8,77.1,70.6,78.0,73.2,69.0,98,88,76,26.93,26.93,4,0,0,0.08
2013-7-14,90.0,81.3,72.8,80.0,76.0,73.0,100,85,66,26.93,26.92,1,0,0,0.01
2013-7-15,94.9,83.2,72.5,80.0,76.0,71.0,97,80,58,26.93,26.93,3,0,0,0.00
2013-7-16,95.1,87.0,79.8,79.5,75.9,73.0,85,71,54,26.93,26.92,4,0,4,0.00
2013-7-17,93.9,85.1,76.5,80.0,76.1,73.0,91,75,56,26.93,26.93,1,0,0,0.00
2013-7-18,95.6,87.2,77.2,83.0,79.5,75.0,95,79,63,31.39,26.93,5,0,0,0.00
2013-7-19,97.1,88.1,79.7,83.0,80.1,76.0,90,78,63,31.39,31.38,2,0,0,0.00
2013-7-20,95.1,85.7,79.4,81.0,77.9,76.0,90,78,59,31.38,31.38,2,0,0,0.00
2013-7-21,90.8,82.6,75.3,77.0,74.6,71.0,91,77,62,31.38,31.38,3,0,0,0.00
2013-7-22,90.8,81.6,74.6,80.0,76.0,72.0,95,83,68,31.38,31.38,3,0,0,0.00
2013-7-23,88.3,80.2,74.1,76.0,73.3,70.0,98,81,60,31.38,31.38,5,1,0,0.02
2013-7-24,85.0,78.8,73.0,72.0,69.1,63.0,87,73,59,31.38,31.38,6,1,1,0.00
2013-7-25,82.2,72.9,64.7,68.0,61.1,55.0,78,67,55,31.38,31.38,5,0,0,0.00
2013-7-26,84.6,74.9,65.0,68.0,64.8,62.0,91,72,54,31.38,31.38,1,0,0,0.00
2013-7-27,85.9,74.9,68.8,74.0,70.3,67.0,98,86,66,31.38,31.34,3,0,0,0.31
2013-7-28,83.6,74.5,68.5,76.0,71.9,68.0,99,92,74,31.34,31.34,1,0,0,0.04
2013-7-29,83.6,73.6,65.8,71.0,63.6,60.0,95,72,48,31.34,31.34,4,0,0,0.00
2013-7-30,83.9,74.1,62.9,67.0,62.8,59.0,88,69,53,31.34,31.34,2,0,0,0.00
2013-7-31,82.5,74.1,67.1,73.0,68.9,65.0,96,84,68,31.34,31.34,1,0,0,0.02
2013-8-1,80.9,73.0,68.5,75.0,71.3,68.0,99,94,83,31.34,31.34,1,0,0,0.40
2013-8-2,86.0,76.7,66.2,71.0,68.8,65.0,97,78,60,31.34,31.34,2,0,0,0.00
2013-8-3,80.0,73.2,68.6,71.0,68.1,67.0,94,84,66,31.34,31.34,3,0,1,0.00
2013-8-4,82.2,73.1,65.8,68.0,62.9,58.0,97,72,50,32.13,31.34,7,1,0,0.00
2013-8-5,82.1,71.2,60.5,63.0,59.7,56.0,85,68,48,32.13,32.13,4,0,0,0.00
2013-8-6,73.2,70.3,68.0,69.0,66.9,62.0,94,89,81,32.13,32.13,1,0,0,0.02
2013-8-7,84.4,76.5,70.4,76.0,71.7,68.0,94,85,74,32.13,32.13,4,0,0,0.00
2013-8-8,87.2,80.1,75.1,78.0,75.3,73.0,92,85,73,32.13,32.13,1,0,0,0.00
2013-8-9,91.8,84.3,77.3,80.0,76.8,74.0,92,79,65,32.13,32.13,3,0,0,0.00
2013-8-10,84.2,78.7,72.2,74.0,71.0,68.0,93,78,64,32.13,32.13,4,0,0,0.01
2013-8-11,86.0,77.6,72.0,74.0,70.9,68.0,92,80,63,32.13,29.20,1,0,0,0.00
2013-8-12,90.1,80.7,71.9,76.0,72.1,69.0,95,76,51,30.62,29.20,6,0,0,0.00
2013-8-13,86.3,78.7,70.9,76.0,73.0,69.0,98,83,64,30.62,29.63,5,0,0,0.26
2013-8-14,74.7,68.4,61.6,71.0,56.9,52.0,98,67,55,29.63,29.63,8,2,0,0.01
2013-8-15,78.3,68.3,59.0,61.0,56.2,54.0,84,67,44,32.11,25.16,2,0,0,0.00
2013-8-16,78.4,69.1,57.3,63.0,58.9,56.0,96,72,53,31.87,31.33,2,0,0,0.00
2013-8-17,79.2,70.9,60.0,66.0,61.6,58.0,94,74,55,31.87,31.87,2,0,1,0.00
2013-8-18,72.0,68.7,64.5,67.0,64.6,62.0,96,87,72,31.87,31.87,1,0,0,0.20
2013-8-19,74.1,68.9,62.5,69.0,65.8,61.0,97,90,82,31.87,30.44,2,0,0,0.00
2013-8-20,86.8,76.6,65.0,75.0,70.6,64.0,98,83,64,30.44,30.44,2,0,0,0.00
2013-8-21,89.4,79.0,70.1,77.0,73.5,69.0,98,84,63,30.44,30.44,2,0,0,0.09
2013-8-22,87.2,79.7,71.8,74.0,71.9,70.0,99,78,59,30.44,30.44,5,1,0,0.00
2013-8-23,78.1,72.1,62.9,72.0,66.8,58.0,97,83,60,30.44,29.14,2,0,0,0.11
2013-8-24,81.7,71.9,61.4,66.0,62.6,60.0,97,74,51,29.14,29.14,5,0,0,0.00
2013-8-25,82.0,71.7,60.9,68.0,62.2,58.0,97,74,52,29.14,29.14,2,0,1,0.00
2013-8-26,87.6,74.9,62.1,70.0,64.6,58.0,91,72,52,29.14,29.14,4,0,0,0.00
2013-8-27,90.9,80.5,71.6,76.0,71.5,67.0,86,75,58,32.20,29.14,5,0,0,0.00
2013-8-28,79.9,76.3,74.4,76.0,73.1,70.0,96,90,79,32.13,31.41,0,0,0,0.05
2013-8-29,84.5,77.4,73.3,74.0,72.3,71.0,97,84,66,31.66,31.48,4,0,0,0.01
2013-8-30,86.3,78.3,71.6,75.0,72.0,69.0,92,81,67,31.48,31.48,1,0,0,0.00
2013-8-31,89.5,80.3,71.8,77.0,73.7,70.0,93,81,65,31.48,31.48,1,0,0,0.00
2013-9-1,90.5,80.8,69.9,77.0,73.3,68.0,95,79,59,31.48,28.54,1,0,0,0.00
2013-9-2,89.2,79.7,71.7,78.0,74.3,70.0,99,84,65,32.04,28.54,3,0,0,0.10
2013-9-3,84.6,78.6,72.2,75.0,67.2,59.0,93,69,51,32.04,31.88,5,1,0,0.00
2013-9-4,82.9,72.4,63.2,64.0,59.7,57.0,81,65,44,31.88,31.88,7,0,0,0.00
2013-9-5,83.6,74.1,61.4,67.0,61.7,54.0,92,67,51,31.88,31.76,7,1,0,0.00
2013-9-6,75.9,68.4,60.3,58.0,53.3,48.0,73,59,48,31.76,31.76,4,0,0,0.00
2013-9-7,75.3,72.0,68.4,66.0,65.2,64.0,87,79,72,31.76,31.76,0,0,0,0.00
2013-9-8,87.4,76.8,66.1,71.0,67.0,62.0,94,73,56,31.76,31.76,4,0,0,0.00
2013-9-9,80.5,72.7,64.6,70.0,61.9,53.0,87,69,63,31.76,31.76,2,0,0,0.00
2013-9-10,91.1,80.5,72.7,78.0,73.9,69.7,93,81,63,31.76,29.06,1,0,0,0.00
2013-9-11,93.3,83.6,74.0,80.0,75.5,73.0,96,78,57,29.06,29.06,4,0,0,0.00
2013-9-12,92.3,77.9,71.0,78.0,71.2,-99.9,98,83,59,30.94,29.06,7,-10,0,0.21
2013-9-13,77.5,70.9,63.2,70.0,61.5,53.0,98,74,48,31.35,30.94,5,1,0,0.00
2013-9-14,69.3,61.5,54.1,53.0,49.6,47.0,81,66,52,31.35,31.35,7,1,0,0.00
2013-9-15,75.9,63.6,49.1,60.0,54.5,47.0,95,74,56,32.32,0.00,4,0,1,0.00
2013-9-16,72.6,65.3,59.5,63.0,59.6,56.0,93,82,64,32.32,21.81,6,0,0,0.04
2013-9-17,68.1,59.9,51.7,57.0,48.4,44.0,90,67,43,23.99,21.81,5,0,2,0.00
2013-9-18,71.4,59.2,46.9,55.0,50.1,45.0,96,74,49,0.00,0.00,1,0,0,0.00
2013-9-19,76.7,64.6,51.6,62.0,56.8,50.0,97,77,59,29.33,0.00,1,0,0,0.00
2013-9-20,79.6,67.8,55.6,66.0,60.5,54.0,96,79,62,29.33,29.33,2,0,0,0.00
2013-9-21,77.4,67.7,60.9,68.0,63.4,58.0,98,86,67,29.33,29.33,1,0,0,0.84
2013-9-22,71.5,65.3,58.4,63.0,57.6,51.0,97,78,59,29.33,29.33,9,0,0,0.01
2013-9-23,65.4,59.1,52.4,51.0,48.7,46.0,85,69,58,29.33,28.94,4,0,0,0.00
2013-9-24,71.4,58.4,46.7,55.0,49.6,45.0,94,74,51,28.94,25.95,4,0,0,0.00
2013-9-25,73.9,60.5,48.9,55.0,50.8,47.0,96,73,42,25.95,20.09,2,0,0,0.00
2013-9-26,74.1,63.4,55.9,58.0,55.9,54.0,93,78,55,20.09,20.09,2,0,0,0.00
2013-9-27,71.5,63.5,55.0,62.0,57.8,53.0,95,83,66,0.00,0.00,1,0,0,0.00
2013-9-28,69.7,63.4,57.4,59.0,56.6,55.0,91,79,64,0.00,0.00,4,0,0,0.00
2013-9-29,72.2,61.6,51.7,61.0,55.8,50.0,97,82,64,29.97,0.00,1,0,0,0.00
2013-9-30,73.0,62.7,51.6,61.0,55.7,50.0,97,79,59,0.00,0.00,1,0,0,0.00
2013-10-1,80.8,67.4,56.1,65.0,60.4,54.0,95,80,55,0.00,0.00,2,0,0,0.00
2013-10-2,84.8,70.7,57.6,67.0,62.4,56.0,97,77,53,0.00,0.00,6,0,0,0.00
2013-10-3,83.4,71.7,60.2,70.0,65.0,59.0,96,80,59,30.82,0.00,1,0,0,0.00
2013-10-4,86.3,73.5,62.1,71.0,66.8,61.0,98,81,58,30.82,30.37,3,0,0,0.00
2013-10-5,87.0,75.9,65.5,72.0,68.7,64.0,97,80,60,30.37,30.37,0,0,0,0.00
2013-10-6,88.4,76.0,65.5,73.0,68.9,64.0,97,80,57,31.53,30.37,2,0,1,0.00
2013-10-7,76.8,67.4,54.7,73.0,64.7,51.0,98,91,80,31.53,30.92,3,0,1,1.02
2013-10-8,65.7,59.0,51.4,52.0,49.9,48.0,87,73,60,30.92,30.92,3,0,1,0.00
2013-10-9,61.3,57.9,55.0,54.0,51.9,49.0,93,80,73,30.92,30.92,3,0,0,0.15
2013-10-10,58.2,56.0,53.6,58.0,55.2,52.0,98,96,92,30.92,0.00,2,0,0,1.44
2013-10-11,62.5,60.3,56.5,62.0,59.9,56.0,100,98,98,32.46,0.00,3,0,0,2.47
2013-10-12,67.0,62.5,60.5,63.0,61.1,60.0,99,95,83,21.12,21.12,3,0,0,0.28
2013-10-13,64.5,61.3,57.8,61.0,58.8,55.0,97,91,84,32.14,0.00,2,0,0,0.02
2013-10-14,67.8,60.9,54.7,59.0,56.1,53.0,94,84,70,24.44,24.41,5,0,0,0.00
2013-10-15,70.5,61.0,51.4,60.0,53.9,50.0,98,80,50,24.41,21.28,4,0,0,0.00
2013-10-16,72.1,65.3,60.9,66.0,61.8,58.0,95,88,77,24.88,21.28,0,0,0,0.00
2013-10-17,76.2,67.4,60.3,68.0,63.8,60.0,98,88,73,0.00,0.00,4,0,0,0.00
2013-10-18,65.3,58.1,49.7,58.0,48.3,46.0,90,71,54,0.00,0.00,6,1,0,0.00
2013-10-19,65.3,56.7,46.8,60.0,53.0,45.0,96,88,70,0.00,0.00,2,0,0,0.00
2013-10-20,62.2,53.7,44.8,53.0,41.8,38.0,90,66,46,0.00,0.00,8,1,4,0.00
2013-10-21,65.9,52.9,40.7,51.0,45.5,39.0,97,78,50,0.00,0.00,1,0,0,0.00
2013-10-22,64.0,55.1,45.5,55.0,48.4,40.0,96,79,58,25.64,0.00,5,0,0,0.00
2013-10-23,57.4,50.6,45.0,44.0,41.0,38.0,92,71,50,25.64,25.64,5,1,0,0.10
2013-10-24,51.4,44.7,38.6,38.0,34.1,31.0,84,68,50,25.64,23.84,5,0,0,0.00
2013-10-25,53.9,44.9,34.2,37.0,34.1,31.0,92,67,52,22.50,0.00,7,1,0,0.00
2013-10-26,55.4,44.9,31.3,38.0,34.0,29.0,92,68,49,22.50,22.50,4,0,0,0.00
2013-10-27,60.0,48.8,39.1,43.0,39.4,36.0,90,72,50,22.50,22.50,8,0,0,0.00
2013-10-28,63.2,48.6,37.7,48.0,42.0,36.0,95,80,53,22.50,22.50,2,0,0,0.00
2013-10-29,62.2,50.2,40.4,48.0,44.0,39.0,99,81,56,0.00,0.00,2,0,0,0.00
2013-10-30,62.7,54.8,49.6,58.0,52.5,46.0,97,92,82,0.00,0.00,0,0,0,0.04
2013-10-31,68.8,61.4,53.0,63.0,58.6,52.0,98,91,80,0.00,0.00,1,0,0,0.01
2013-11-1,72.0,66.5,59.0,66.0,62.6,58.0,97,87,77,31.12,0.00,5,0,0,0.07
2013-11-2,67.9,58.9,50.5,59.0,50.3,42.0,97,75,55,31.12,31.12,6,0,0,0.00
2013-11-3,56.6,49.4,42.2,44.0,36.7,28.0,89,64,37,31.12,31.12,7,1,0,0.00
2013-11-4,46.3,40.5,35.1,31.0,26.6,23.0,79,58,48,31.12,31.12,6,0,0,0.00
2013-11-5,57.8,48.3,37.1,49.0,41.1,32.0,86,76,67,31.12,31.12,2,0,0,0.00
2013-11-6,69.4,58.3,50.6,57.0,52.3,48.0,93,81,64,31.12,31.12,2,0,0,0.00
2013-11-7,62.6,54.3,45.0,58.0,48.0,28.0,97,80,50,31.12,31.12,12,1,0,0.00
2013-11-8,51.2,41.9,32.5,34.0,29.9,28.0,88,65,44,31.12,31.12,9,1,0,0.00
2013-11-9,55.3,43.4,29.4,36.0,32.2,27.0,92,67,46,31.12,31.12,5,0,0,0.00
2013-11-10,64.1,48.5,35.5,43.0,34.2,30.0,88,61,37,31.12,31.12,7,1,0,0.00
2013-11-11,57.9,48.4,34.1,38.0,33.7,29.0,85,58,45,0.00,0.00,2,0,0,0.00
2013-11-12,51.0,41.9,32.7,41.0,27.4,18.0,76,57,46,0.00,0.00,8,1,0,0.00
2013-11-13,41.6,35.4,29.2,25.0,22.0,20.0,70,59,49,0.00,0.00,9,1,0,0.00
2013-11-14,56.7,38.0,25.2,33.0,26.1,20.0,85,65,35,0.00,0.00,1,0,0,0.00
2013-11-15,61.3,43.1,28.4,44.0,32.9,26.0,92,70,39,0.00,0.00,1,0,0,0.08
2013-11-16,52.5,49.5,45.2,51.0,48.2,44.0,100,95,92,0.00,0.00,0,0,0,0.34
2013-11-17,64.8,58.1,51.2,60.0,55.8,50.0,98,92,83,0.00,0.00,1,0,1,0.00
2013-11-18,69.0,60.2,51.3,62.0,44.3,31.0,98,62,29,25.54,0.00,7,2,0,0.13
2013-11-19,50.9,45.3,39.9,31.0,28.9,26.0,61,53,46,31.46,25.54,11,2,0,0.00
2013-11-20,48.1,39.3,32.8,31.0,26.9,24.0,85,62,48,31.46,31.46,1,0,3,0.00
2013-11-21,50.7,42.2,32.0,41.0,35.5,29.0,95,77,67,0.00,0.00,0,0,0,0.00
2013-11-22,61.9,53.6,44.0,55.0,48.5,40.0,92,83,74,0.00,0.00,5,0,0,0.00
2013-11-23,58.4,45.6,33.2,52.0,30.8,16.0,78,57,42,0.00,0.00,11,3,0,0.00
2013-11-24,33.1,28.0,24.5,16.0,9.6,7.0,53,46,40,0.00,0.00,11,2,0,0.00
2013-11-25,37.5,30.1,22.2,18.0,13.2,9.0,59,50,40,0.00,0.00,3,0,0,0.00
2013-11-26,46.1,36.8,33.7,45.0,30.1,17.0,97,79,49,0.00,0.00,9,0,0,1.54
2013-11-27,40.0,37.4,29.5,38.0,33.1,18.0,96,85,61,0.00,0.00,10,2,0,0.73
2013-11-28,38.3,31.1,25.2,26.0,19.7,16.0,83,63,49,0.00,0.00,7,1,0,0.00
2013-11-29,42.4,33.6,23.6,25.0,23.3,21.0,91,68,50,0.00,0.00,5,0,0,0.00
2013-11-30,38.4,32.8,27.0,27.0,23.3,20.0,79,69,58,0.00,0.00,0,0,0,0.00
2013-12-1,49.7,37.1,24.5,35.0,29.9,22.0,94,76,56,0.00,0.00,3,0,0,0.00
2013-12-2,48.5,43.9,40.2,43.0,37.9,34.0,83,79,75,0.00,0.00,1,0,0,0.00
2013-12-3,58.1,46.0,39.3,44.0,39.3,36.0,91,78,59,28.94,0.00,1,0,0,0.00
2013-12-4,56.9,48.3,38.7,50.0,44.4,37.0,93,87,77,28.94,28.94,0,0,0,0.00
2013-12-5,69.9,60.2,52.4,62.0,57.2,50.0,95,90,76,28.94,28.94,4,0,0,0.00
2013-12-6,64.1,51.6,39.5,63.0,50.3,38.0,97,95,93,0.00,0.00,7,1,0,0.60
2013-12-7,42.8,38.1,31.9,38.0,31.9,24.0,95,79,65,0.00,0.00,5,1,0,0.17
2013-12-8,31.7,30.1,28.3,30.0,25.7,22.0,95,84,70,0.00,0.00,2,0,0,0.12
2013-12-9,35.6,33.3,31.7,35.0,32.3,31.0,96,96,95,0.00,0.00,0,0,0,1.15
2013-12-10,37.3,32.5,25.5,34.0,30.5,24.0,96,92,75,0.00,0.00,7,0,0,0.23
2013-12-11,42.3,29.5,20.3,29.0,24.5,19.0,95,83,57,0.00,0.00,2,0,0,0.12
2013-12-12,32.1,27.9,22.7,25.0,18.0,14.0,93,67,50,0.00,0.00,7,0,0,0.00
2013-12-13,42.5,32.8,23.1,26.0,21.2,17.0,81,64,45,20.39,0.00,2,0,0,0.05
2013-12-14,40.2,35.9,31.7,37.0,31.7,26.0,100,85,77,20.39,20.39,5,0,3,0.49
2013-12-15,47.1,38.1,29.1,39.0,31.8,24.0,95,79,62,20.39,20.39,18,1,0,0.00
2013-12-16,37.7,35.0,31.0,28.0,26.6,25.0,83,71,64,20.39,20.39,5,0,0,0.00
2013-12-17,38.2,35.6,33.6,35.0,30.8,27.0,90,82,77,20.39,20.39,4,0,0,0.01
2013-12-18,42.2,34.1,26.9,32.0,26.6,24.0,94,75,54,0.00,0.00,5,0,0,0.01
2013-12-19,60.4,42.2,25.5,38.0,30.5,23.0,91,67,41,0.00,0.00,3,0,0,0.00
2013-12-20,59.0,51.4,39.1,50.0,38.2,31.0,76,61,50,0.00,0.00,5,0,0,0.00
2013-12-21,70.9,62.3,53.7,62.0,54.0,45.0,85,75,65,0.00,0.00,6,1,0,0.00
2013-12-22,70.3,64.6,59.9,65.0,61.7,59.0,97,90,80,0.00,0.00,5,1,0,0.23
2013-12-23,62.7,54.7,39.6,63.0,51.4,31.0,99,89,69,0.00,0.00,7,1,0,0.79
2013-12-24,40.0,34.7,24.5,30.0,22.5,11.0,71,61,48,0.00,0.00,9,2,0,0.00
2013-12-25,33.7,26.4,21.1,20.0,14.6,11.0,79,61,49,27.00,0.00,5,0,0,0.00
2013-12-26,45.6,31.4,23.3,29.0,24.1,20.0,87,75,51,27.00,27.00,3,0,0,0.00
2013-12-27,50.6,34.5,23.9,30.0,25.6,21.0,92,72,43,27.00,27.00,1,0,0,0.00
2013-12-28,56.7,39.3,25.3,36.0,29.8,23.0,93,71,43,27.00,27.00,2,0,0,0.00
2013-12-29,47.5,44.0,38.3,47.0,40.8,32.0,97,89,58,27.00,27.00,5,0,0,1.32
2013-12-30,45.5,38.3,33.9,42.0,32.8,24.0,100,81,67,27.00,27.00,6,0,0,0.00
2013-12-31,46.5,36.0,30.2,33.0,24.2,19.0,77,63,49,27.00,27.00,6,1,0,0.00
2014-1-1,47.9,35.9,26.1,33.0,27.3,20.0,89,72,54,27.00,27.00,4,0,0,0.00
2014-1-2,37.8,33.4,30.2,34.0,31.3,29.0,95,91,85,0.00,0.00,1,0,0,0.07